Content
SEND FEEDBACK

Daily
Averages
Monthly
Summary
United States of America

LAUGHLIN, NEVADA


Home > North America > United States > Nevada
Elevation: 1018 feet     Latitude: 35 10N     Longitude: 114 37W

WEATHER
 
SELECT A DAY
Number of Records: 189,175;   Date Range: 7/1/96 - 10/24/14
 
SHARE

PRINT THIS DATA

[ ← Previous Day ]
WEATHER ALMANAC - NOVEMBER 1, 2013
[ Next Day → ]
[ °C ]   °F
Weather ElementAverageHighLow
Temperature68.3 °F77 °F (1:55 pm)51.8 °F (7:55 am)
Dewpoint29.9 °F35.6 °F (6:55 am)26.6 °F (7:35 pm)
Humidity24.9 %47 % (6:55 am)17 % (3:35 pm)
Barometer30.11 in30.20 in (8:35 am)30.04 in (4:55 pm)
Wind Speed13.6 mph25.3 mph (12:55 pm)
Wind Gust31.1 mph (12:35 pm)
Weather ElementAverage
Visibility10 mi
Wind DirectionENE (71.3 °)

Weather ElementTotal
Precipitation---
Heating Degree Days0.6 (Base 65)
Growing Degree Days14.4 (Base 50)
Averaged from 71 records on November 1, 2013
WEATHER CONDITIONS BREAKOUT
WIND DIRECTION BREAKOUT
WEATHER BY HOUR - NOVEMBER 1, 2013
[ °C ]   °F
Local TimeTemperatureDewpointHumidityBarometerVisibilityWind DirectionWind SpeedGust SpeedPrecipitationEventsConditions
12:35 AM64.4 °F28.4 °F26 %30.09 in10.0 miNE (50°)8.1 mphClear
12:55 AM64.4 °F28.4 °F26 %30.09 in10.0 miNE (50°)11.5 mphClear
1:15 AM64.4 °F28.4 °F26 %30.10 in10.0 miNE (50°)9.2 mphClear
1:35 AM64.4 °F28.4 °F26 %30.10 in10.0 miNE (40°)9.2 mphClear
1:55 AM62.6 °F28.4 °F27 %30.11 in10.0 miNNE (20°)8.1 mphClear
2:15 AM64.4 °F28.4 °F26 %30.11 in10.0 miNE (50°)12.7 mph16.1 mphClear
2:35 AM62.6 °F28.4 °F27 %30.11 in10.0 miENE (60°)13.8 mphClear
2:55 AM62.6 °F28.4 °F27 %30.11 in10.0 miNE (50°)11.5 mphClear
3:15 AM62.6 °F30.2 °F30 %30.11 in10.0 miNE (40°)8.1 mphClear
3:35 AM62.6 °F28.4 °F27 %30.11 in10.0 miNNE (30°)8.1 mphClear
3:55 AM64.4 °F28.4 °F26 %30.11 in10.0 miNE (50°)13.8 mphClear
4:15 AM62.6 °F28.4 °F27 %30.11 in10.0 miNE (40°)13.8 mphClear
4:35 AM62.6 °F28.4 °F27 %30.12 in10.0 miNE (40°)9.2 mphClear
4:55 AM60.8 °F30.2 °F31 %30.12 in10.0 miNNE (20°)3.5 mphClear
5:15 AM60.8 °F30.2 °F31 %30.13 in10.0 miNE (40°)6.9 mphClear
5:35 AM59.0 °F32.0 °F36 %30.13 in10.0 miCalmClear
5:55 AM60.8 °F30.2 °F31 %30.14 in10.0 miNE (40°)10.4 mphClear
6:15 AM59.0 °F30.2 °F34 %30.14 in10.0 miNNE (30°)6.9 mphClear
6:35 AM59.0 °F32.0 °F36 %30.15 in10.0 miNorth (10°)6.9 mphClear
6:55 AM55.4 °F35.6 °F47 %30.15 in10.0 miSSW (210°)5.8 mphClear
7:15 AM53.6 °F33.8 °F47 %30.16 in10.0 miSSW (200°)4.6 mphClear
7:35 AM53.6 °F32.0 °F44 %30.17 in10.0 miSSW (210°)6.9 mphClear
7:55 AM51.8 °F32.0 °F47 %30.18 in10.0 miSouth (190°)5.8 mphClear
8:15 AM53.6 °F32.0 °F44 %30.19 in10.0 miSouth (190°)3.5 mphClear
8:35 AM57.2 °F32.0 °F38 %30.20 in10.0 miNE (40°)3.5 mphClear
8:55 AM64.4 °F30.2 °F28 %30.20 in10.0 miNNE (20°)10.4 mphClear
9:15 AM66.2 °F30.2 °F26 %30.20 in10.0 miNNE (30°)16.1 mphClear
9:35 AM66.2 °F32.0 °F28 %30.20 in10.0 miNNE (30°)17.3 mph24.2 mphClear
9:55 AM66.2 °F32.0 °F28 %30.20 in10.0 miNNE (30°)12.7 mph21.9 mphClear
10:15 AM68.0 °F32.0 °F26 %30.19 in10.0 miNNE (20°)19.6 mph25.3 mphClear
10:35 AM68.0 °F32.0 °F26 %30.19 in10.0 miNorth (10°)23.0 mph27.6 mphClear
10:55 AM69.8 °F32.0 °F25 %30.19 in10.0 miNorth (10°)19.6 mph26.5 mphClear
11:15 AM71.6 °F32.0 °F23 %30.18 in10.0 miNorth (10°)21.9 mph29.9 mphClear
11:35 AM71.6 °F32.0 °F23 %30.17 in10.0 miNorth (10°)21.9 mph25.3 mphClear
11:55 AM71.6 °F30.2 °F22 %30.16 in10.0 miNorth (10°)19.6 mph29.9 mphClear
12:15 PM73.4 °F32.0 °F22 %30.15 in10.0 miNorth (10°)24.2 mphClear
12:35 PM73.4 °F32.0 °F22 %30.13 in10.0 miNorth (360°)24.2 mph31.1 mphClear
12:55 PM73.4 °F30.2 °F20 %30.12 in10.0 miNorth (360°)25.3 mph29.9 mphClear
1:15 PM75.2 °F30.2 °F19 %30.11 in10.0 miNorth (360°)20.7 mphClear
1:35 PM75.2 °F30.2 °F19 %30.10 in10.0 miNorth (360°)20.7 mphClear
1:55 PM77.0 °F30.2 °F18 %30.09 in10.0 miNorth (10°)23.0 mph28.8 mphClear
2:15 PM77.0 °F30.2 °F18 %30.08 in10.0 miNorth (10°)21.9 mphClear
2:35 PM77.0 °F30.2 °F18 %30.08 in10.0 miNorth (10°)19.6 mph24.2 mphClear
2:55 PM77.0 °F30.2 °F18 %30.07 in10.0 miNorth (10°)19.6 mph25.3 mphClear
3:15 PM77.0 °F30.2 °F18 %30.07 in10.0 miNorth (10°)18.4 mph24.2 mphClear
3:35 PM77.0 °F28.4 °F17 %30.06 in10.0 miNorth (10°)19.6 mphClear
3:55 PM77.0 °F28.4 °F17 %30.05 in10.0 miNorth (10°)19.6 mphClear
4:15 PM77.0 °F28.4 °F17 %30.05 in10.0 miNorth (360°)17.3 mphClear
4:35 PM77.0 °F30.2 °F18 %30.05 in10.0 miNorth (360°)15.0 mph20.7 mphClear
4:55 PM77.0 °F28.4 °F17 %30.04 in10.0 miNorth (10°)15.0 mphClear
5:15 PM77.0 °F30.2 °F18 %30.04 in10.0 miNorth (360°)13.8 mphClear
5:35 PM75.2 °F32.0 °F21 %30.05 in10.0 miNorth (10°)11.5 mphClear
5:55 PM75.2 °F32.0 °F21 %30.05 in10.0 miNorth (10°)12.7 mphClear
6:15 PM73.4 °F30.2 °F20 %30.05 in10.0 miNNE (20°)11.5 mphClear
6:35 PM73.4 °F28.4 °F19 %30.06 in10.0 miNNE (20°)12.7 mphClear
6:55 PM73.4 °F30.2 °F20 %30.06 in10.0 miNNE (20°)11.5 mphClear
7:15 PM71.6 °F28.4 °F20 %30.06 in10.0 miNE (40°)9.2 mphClear
7:35 PM71.6 °F26.6 °F19 %30.06 in10.0 miNNE (30°)8.1 mphClear
7:55 PM71.6 °F26.6 °F19 %30.06 in10.0 miNNE (30°)9.2 mphClear
8:15 PM71.6 °F26.6 °F19 %30.05 in10.0 miNNE (30°)10.4 mphClear
8:35 PM71.6 °F28.4 °F20 %30.05 in10.0 miNNE (30°)15.0 mphClear
8:55 PM71.6 °F28.4 °F20 %30.05 in10.0 miNNE (30°)16.1 mphClear
9:15 PM71.6 °F28.4 °F20 %30.05 in10.0 miNNE (30°)13.8 mphClear
9:35 PM71.6 °F28.4 °F20 %30.06 in10.0 miNNE (30°)15.0 mphClear
9:55 PM71.6 °F28.4 °F20 %30.07 in10.0 miNNE (30°)16.1 mphClear
10:15 PM71.6 °F28.4 °F20 %30.06 in10.0 miNNE (30°)17.3 mphClear
10:35 PM71.6 °F28.4 °F20 %30.06 in10.0 miNNE (30°)16.1 mphClear
10:55 PM71.6 °F28.4 °F20 %30.06 in10.0 miNNE (30°)12.7 mphClear
11:15 PM69.8 °F28.4 °F21 %30.06 in10.0 miNorth (10°)11.5 mphClear
11:35 PM69.8 °F28.4 °F21 %30.05 in10.0 miNNE (30°)13.8 mphClear
11:55 PM69.8 °F28.4 °F21 %30.05 in10.0 miNNE (30°)17.3 mphClear
Hourly data recorded from KIFP, located miles away from Laughlin, Nevada







STORIES FROM OUR PARTNERS